2023-127A (57696 NORAD) Tracking and Keplerian Element Data

This shows tracking and keplerian element data for the satellite.

Feedback or suggestion? Click here.




ElementValue
Catalog57696
Name2023-127A
Epoch Orbit19
Epoch Day238.45584669
Epoch Year2023
RAAN323.962
Inclination97.594
Eccentricity0.0012637
Argument of Perigee286.1713
Mean Anonmoly135.1141
Mean Motion15.09402306
Decay Rate0.00011577
L11 57696U 23127A 23238.45584669 .00011577 00000+0 72635-3 0 9999
L22 57696 97.5940 323.9620 0012637 286.1713 135.1141 15.09402306 197



Live tracking and technical data element details for 2023-127A (NORAD 57696). 2023-127A can be tracked NOW for your location showing map with azimuth and elevation plus other details from your city location.







IsCatalogInMostPopularTable: catalog: 57696, numindb: 19
Update: records affected: 1



GetName: 57696 2023-127A

Hit Count: updated at: Tue, 26 Sep 2023 11:31:36 GMT